Hourly Data Report for October 20, 2016

All times are specified in Local Standard Time (LST). Add 1 hour to adjust for Daylight Saving Time where and when it is observed.

ST LEONARD CS
NEW BRUNSWICK

47°09'28.050" N
67°49'55.014" W
245.00 m
810I001
71019
WIY

Download Data

Hourly Data (October 2016)
Hourly Data Report for October 20, 2016
Temp Definition
°C
Dew Point Temp Definition
°C
Rel Hum Definition
%
Wind Dir Definition
10's deg

Wind Spd Definition
km/h
Visibility Definition
km
Stn Press Definition
kPa
Hmdx Definition


Wind Chill Definition


Weather Definition


TIME
00:00 2.2 1.2 93 23 3   99.00     LegendNANA
01:00 3.4 2.5 94 26 8   99.07     LegendNANA
02:00 4.5 1.7 82 27 9   99.14     LegendNANA
03:00 1.3 -0.1 90 25 6   99.18     LegendNANA
04:00 0.3 -0.4 95 19 3   99.21     LegendNANA
05:00 -0.6 -1.3 96 14 6   99.27   -3 LegendNANA
06:00 -0.8 -1.2 97 15 3   99.33   -2 LegendNANA
07:00 -1.4 -1.7 98 14 5   99.40   -3 LegendNANA
08:00 2.8 1.9 94 14 9   99.45     LegendNANA
09:00 5.1 3.5 89 13 6   99.48     LegendNANA
10:00 6.6 4.0 83 16 3   99.51     LegendNANA
11:00 10.6 4.8 67 20 8   99.53     LegendNANA
12:00 10.9 5.2 68 16 6   99.51     LegendNANA
13:00 12.9 5.2 60 14 8   99.50     LegendNANA
14:00 12.8 5.3 60 15 8   99.49     LegendNANA
15:00 12.5 5.2 61 18 15   99.50     LegendNANA
16:00 11.3 4.4 63 18 16   99.57     LegendNANA
17:00 10.6 4.6 66 17 11   99.59     LegendNANA
18:00 9.9 5.2 72 15 9   99.55     LegendNANA
19:00 9.5 5.2 75 15 9   99.55     LegendNANA
20:00 8.9 5.7 81 13 10   99.55     LegendNANA
21:00 8.3 5.8 84 14 8   99.56     LegendNANA
22:00 7.7 6.3 91 12 8   99.51     LegendNANA
23:00 7.6 6.5 92 11 11   99.39     LegendNANA

Notes on Data Quality.

Legend

  • E = Estimated
  • M = Missing
  • NA = Not Available
  • ‡ = Partner data that is not subject to review by the National Climate Archives
Date modified: